Torna al catalogo

ONEWEB-0123

AttivoComunicazioniPO
NORAD 47269·PAYLOAD·🇬🇧 United Kingdom

Lanciato Dec 18, 2020 da Vostochny Cosmodrome

Loading…

Prossimi Passaggi (prossime 24 ore)

TLE

AggiornatoSource: CelesTrak SupGP

Epoca: Sep 15, 2026, 00:37 UTC

1 47269C 20100M   26258.02584909  .00001179  00000+0  32809-2 0  2580
2 47269  87.8986 332.8288 0001862 103.9875 311.2037 13.12442203    10

Traccia ONEWEB-0123 in tempo reale con AllMySat

Download on the App Store